FW9374 Weather Reports


time (UTC)temp
C
wind
direction
speed
KPH
gust
KPH
rain 1hr
cm
rain 24hr
cm
rain mn
cm
humidity
%
barometer
mb
20260505032100 17 294 0.0 0.0 0.00 0.00 0.00 45 1015.2
20260505031557 17 294 0.0 0.0 0.00 0.00 0.00 44 1015.2
20260505031058 17 294 0.0 0.0 0.00 0.00 0.00 44 1014.9
20260505030558 18 294 0.0 0.0 0.00 0.00 0.00 42 1015.2
20260505030057 18 294 0.0 0.0 0.00 0.00 0.00 42 1014.9
20260505025557 18 294 0.0 1.6 0.00 0.00 0.00 42 1014.9
20260505025058 18 293 0.0 0.0 0.00 0.00 0.00 40 1015.2
20260505024557 18 293 0.0 0.0 0.00 0.00 0.00 40 1015.2
20260505024058 18 293 0.0 0.0 0.00 0.00 0.00 40 1014.9
20260505023557 18 294 0.0 0.0 0.00 0.00 0.00 40 1014.9
20260505023057 18 294 0.0 0.0 0.00 0.00 0.00 40 1014.9
20260505022557 18 293 0.0 0.0 0.00 0.00 0.00 39 1014.6
20260505022057 18 293 0.0 0.0 0.00 0.00 0.00 40 1014.9
20260505021557 18 293 0.0 0.0 0.00 0.00 0.00 40 1014.9
20260505021058 19 293 0.0 0.0 0.00 0.00 0.00 38 1014.6
20260505020558 19 293 0.0 0.0 0.00 0.00 0.00 37 1014.6
20260505020057 19 294 0.0 0.0 0.00 0.00 0.00 37 1014.6
20260505015557 19 293 0.0 0.0 0.00 0.00 0.00 37 1014.6
20260505015057 19 293 1.6 1.6 0.00 0.00 0.00 37 1014.6
20260505014557 19 294 0.0 0.0 0.00 0.00 0.00 37 1014.2
20260505014057 20 294 0.0 0.0 0.00 0.00 0.00 36 1014.2
20260505013557 20 294 0.0 0.0 0.00 0.00 0.00 35 1013.9
20260505013057 20 294 0.0 0.0 0.00 0.00 0.00 35 1014.2
20260505012557 20 294 0.0 0.0 0.00 0.00 0.00 34 1014.2
20260505012057 20 294 0.0 0.0 0.00 0.00 0.00 34 1014.2
20260505011557 20 294 0.0 0.0 0.00 0.00 0.00 34 1014.2
20260505011058 20 294 0.0 0.0 0.00 0.00 0.00 33 1013.9
20260505010557 21 294 0.0 0.0 0.00 0.00 0.00 33 1013.9
20260505010058 21 294 0.0 0.0 0.00 0.00 0.00 33 1013.9
20260505005559 21 294 0.0 0.0 0.00 0.00 0.00 34 1013.9
20260505005057 21 294 0.0 0.0 0.00 0.00 0.00 32 1013.9
20260505004557 21 294 0.0 0.0 0.00 0.00 0.00 32 1013.5
20260505004057 21 294 0.0 0.0 0.00 0.00 0.00 32 1013.9
20260505003558 21 294 0.0 0.0 0.00 0.00 0.00 32 1013.9
20260505003057 22 294 0.0 0.0 0.00 0.00 0.00 32 1013.5
20260505002558 22 294 0.0 0.0 0.00 0.00 0.00 32 1013.5
20260505002057 22 293 1.6 1.6 0.00 0.00 0.00 32 1013.5
20260505001557 22 296 0.0 1.6 0.00 0.00 0.00 32 1013.5
20260505001057 22 293 0.0 1.6 0.00 0.00 0.00 31 1013.5
20260505000557 23 293 0.0 1.6 0.00 0.00 0.00 32 1013.5
20260505000057 23 292 1.6 1.6 0.00 0.00 0.00 31 1013.9
20260504235557 23 288 1.6 1.6 0.00 0.00 0.00 31 1013.5
20260504235058 23 288 0.0 1.6 0.00 0.00 0.00 31 1013.5
20260504234557 23 318 1.6 1.6 0.00 0.00 0.00 30 1013.5
20260504234057 23 298 1.6 3.2 0.00 0.00 0.00 29 1013.2
20260504233558 24 321 3.2 4.8 0.00 0.00 0.00 29 1013.2
20260504233057 24 289 1.6 3.2 0.00 0.00 0.00 28 1013.5
20260504232557 24 291 1.6 1.6 0.00 0.00 0.00 27 1012.9
20260504232057 25 285 1.6 3.2 0.00 0.00 0.00 26 1013.2
20260504231557 25 293 1.6 3.2 0.00 0.00 0.00 26 1012.9
20260504231057 25 301 0.0 0.0 0.00 0.00 0.00 26 1012.9
20260504230557 25 284 1.6 3.2 0.00 0.00 0.00 25 1012.9
20260504230058 25 268 3.2 4.8 0.00 0.00 0.00 25 1012.9
20260504225557 25 306 1.6 3.2 0.00 0.00 0.00 26 1012.9
20260504225057 25 306 1.6 8.0 0.00 0.00 0.00 26 1012.9
20260504224559 25 260 1.6 3.2 0.00 0.00 0.00 26 1013.2
20260504224057 25 268 1.6 8.0 0.00 0.00 0.00 25 1013.2
20260504223557 26 348 1.6 3.2 0.00 0.00 0.00 26 1012.9
20260504223100 26 270 0.0 3.2 0.00 0.00 0.00 26 1013.2
20260504222558 27 36 1.6 1.6 0.00 0.00 0.00 22 1013.2
20260504222058 26 302 0.0 3.2 0.00 0.00 0.00 23 1013.2
20260504221558 27 323 6.4 9.7 0.00 0.00 0.00 21 1012.9
20260504221057 26 310 4.8 4.8 0.00 0.00 0.00 21 1012.9
20260504220557 26 279 4.8 4.8 0.00 0.00 0.00 21 1012.9
20260504220058 26 271 1.6 3.2 0.00 0.00 0.00 22 1013.2
20260504215558 26 286 1.6 3.2 0.00 0.00 0.00 22 1012.9
20260504215057 27 303 3.2 4.8 0.00 0.00 0.00 20 1012.9
20260504214557 27 286 1.6 3.2 0.00 0.00 0.00 21 1012.9
20260504214057 27 324 1.6 4.8 0.00 0.00 0.00 22 1012.9
20260504213557 27 348 1.6 4.8 0.00 0.00 0.00 21 1013.2
20260504213057 27 289 3.2 8.0 0.00 0.00 0.00 20 1012.9
20260504212558 26 282 1.6 8.0 0.00 0.00 0.00 22 1013.2
20260504212057 27 22 1.6 9.7 0.00 0.00 0.00 19 1013.2
20260504211558 27 295 1.6 4.8 0.00 0.00 0.00 21 1013.2
20260504211057 27 329 1.6 12.9 0.00 0.00 0.00 20 1012.9
20260504210558 27 297 1.6 4.8 0.00 0.00 0.00 21 1013.2
20260504210057 27 305 1.6 4.8 0.00 0.00 0.00 21 1013.2
20260504205557 26 277 1.6 3.2 0.00 0.00 0.00 23 1013.2
20260504205057 26 84 1.6 3.2 0.00 0.00 0.00 21 1013.2
20260504204557 27 270 3.2 4.8 0.00 0.00 0.00 25 1013.5
20260504204057 26 343 1.6 3.2 0.00 0.00 0.00 23 1013.5
20260504203558 26 273 3.2 3.2 0.00 0.00 0.00 24 1013.5
20260504203057 26 287 4.8 4.8 0.00 0.00 0.00 21 1013.5
20260504202557 26 308 1.6 8.0 0.00 0.00 0.00 20 1013.5
20260504202057 26 142 3.2 3.2 0.00 0.00 0.00 22 1013.5
20260504201605 26 285 1.6 8.0 0.00 0.00 0.00 26 1013.9
20260504201058 25 250 1.6 4.8 0.00 0.00 0.00 23 1013.5
20260504200557 26 275 1.6 3.2 0.00 0.00 0.00 23 1013.9
20260504200058 26 4 0.0 3.2 0.00 0.00 0.00 26 1013.5
20260504195558 26 249 3.2 3.2 0.00 0.00 0.00 24 1013.9
20260504195058 25 293 1.6 4.8 0.00 0.00 0.00 27 1013.9
20260504194557 26 137 1.6 9.7 0.00 0.00 0.00 24 1013.5
20260504194058 26 298 0.0 4.8 0.00 0.00 0.00 24 1013.9
20260504193558 26 307 3.2 4.8 0.00 0.00 0.00 26 1014.2
20260504193057 26 295 1.6 8.0 0.00 0.00 0.00 24 1014.2
20260504192558 26 64 0.0 1.6 0.00 0.00 0.00 20 1014.2
20260504192057 26 299 1.6 4.8 0.00 0.00 0.00 24 1014.2
20260504191557 25 178 1.6 1.6 0.00 0.00 0.00 21 1014.2
20260504191058 24 303 1.6 3.2 0.00 0.00 0.00 25 1014.6
20260504190558 25 92 4.8 8.0 0.00 0.00 0.00 23 1014.2
20260504190058 26 288 6.4 9.7 0.00 0.00 0.00 21 1014.6
20260504185557 25 58 3.2 3.2 0.00 0.00 0.00 23 1014.6
20260504185058 25 110 1.6 1.6 0.00 0.00 0.00 26 1014.6
20260504184558 25 244 4.8 4.8 0.00 0.00 0.00 23 1014.6
20260504184057 25 243 1.6 3.2 0.00 0.00 0.00 25 1014.6
20260504183558 24 301 3.2 4.8 0.00 0.00 0.00 24 1014.9
20260504183057 24 270 4.8 4.8 0.00 0.00 0.00 23 1014.9
20260504182558 24 236 1.6 4.8 0.00 0.00 0.00 24 1015.2
20260504182057 23 290 1.6 4.8 0.00 0.00 0.00 24 1015.2
20260504181558 23 282 1.6 4.8 0.00 0.00 0.00 27 1015.2
20260504181057 23 245 0.0 1.6 0.00 0.00 0.00 25 1015.2
20260504180558 25 343 1.6 3.2 0.00 0.00 0.00 25 1015.2
20260504180058 24 130 1.6 3.2 0.00 0.00 0.00 25 1015.2
20260504175557 23 280 1.6 8.0 0.00 0.00 0.00 29 1015.2
20260504175058 23 355 1.6 1.6 0.00 0.00 0.00 29 1015.2
20260504174557 24 258 1.6 9.7 0.00 0.00 0.00 25 1015.2
20260504174058 23 3 0.0 0.0 0.00 0.00 0.00 26 1015.2
20260504173558 23 313 1.6 3.2 0.00 0.00 0.00 24 1015.2
20260504173105 24 271 1.6 4.8 0.00 0.00 0.00 23 1015.2
20260504172558 23 224 1.6 4.8 0.00 0.00 0.00 25 1015.2
20260504172057 23 86 6.4 9.7 0.00 0.00 0.00 26 1015.6
20260504171600 23 234 1.6 3.2 0.00 0.00 0.00 28 1015.6
20260504171057 23 253 3.2 9.7 0.00 0.00 0.00 28 1015.9
20260504170558 23 6 1.6 3.2 0.00 0.00 0.00 29 1015.6
20260504151057 20 281 1.6 1.6 0.00 0.00 0.00 35 1016.9
20260504150558 21 9 0.0 3.2 0.00 0.00 0.00 37 1016.9
20260504141058 18 135 0.0 0.0 0.00 0.00 0.00 46 1017.3
20260504140557 18 135 1.6 1.6 0.00 0.00 0.00 49 1016.9
20260504130558 13 290 0.0 0.0 0.00 0.00 0.00 66 1017.3
20260504110558 7 263 0.0 0.0 0.00 0.00 0.00 92 1016.6
20260504100557 7 263 0.0 0.0 0.00 0.00 0.00 90 1016.9
20260504081558 8 263 0.0 0.0 0.00 0.00 0.00 84 1016.3
20260504081057 8 263 0.0 0.0 0.00 0.00 0.00 83 1015.9
20260504080558 8 263 0.0 0.0 0.00 0.00 0.00 83 1015.9
20260504050558 10 300 0.0 0.0 0.00 0.00 0.00 74 1016.6
20260504045558 10 300 0.0 0.0 0.00 0.00 0.00 73 1016.6
20260504045057 10 300 0.0 0.0 0.00 0.00 0.00 73 1016.6
20260504044557 11 300 0.0 0.0 0.00 0.00 0.00 73 1016.6
20260504044105 11 300 0.0 0.0 0.00 0.00 0.00 72 1016.6
20260504043557 11 300 0.0 0.0 0.00 0.00 0.00 73 1016.6
20260504043057 11 300 0.0 0.0 0.00 0.00 0.00 72 1016.9
20260504042557 11 300 0.0 0.0 0.00 0.00 0.00 72 1016.6
20260504042057 11 300 0.0 0.0 0.00 0.00 0.00 71 1016.9
20260504041557 11 300 0.0 0.0 0.00 0.00 0.00 71 1016.6
20260504041057 11 300 0.0 0.0 0.00 0.00 0.00 71 1016.9
20260504040559 11 300 0.0 0.0 0.00 0.00 0.00 70 1016.6
20260504040057 11 300 0.0 0.0 0.00 0.00 0.00 69 1016.9
20260504035557 11 300 0.0 0.0 0.00 0.00 0.00 69 1016.9
20260504035057 11 300 0.0 0.0 0.00 0.00 0.00 69 1016.9
20260504034558 11 300 0.0 0.0 0.00 0.00 0.00 68 1017.3
20260504034057 11 300 0.0 0.0 0.00 0.00 0.00 67 1016.9
20260504033558 12 300 0.0 0.0 0.00 0.00 0.00 67 1016.9
20260504033057 12 300 0.0 0.0 0.00 0.00 0.00 67 1016.9
20260504032557 12 300 0.0 0.0 0.00 0.00 0.00 66 1016.9